TimeICT,TemperatureF,Dew PointF,Humidity,Sea Level PressureIn,VisibilityMPH,Wind Direction,Wind SpeedMPH,Gust SpeedMPH,PrecipitationIn,Events,Conditions,WindDirDegrees,DateUTC
12:00 AM,77.0,62.6,61,29.89,5.6,North,4.6,-,N/A,,Partly Cloudy,350,2014-01-29 17:00:00
12:30 AM,77.0,62.6,61,29.89,5.6,North,2.3,-,N/A,,Partly Cloudy,360,2014-01-29 17:30:00
1:00 AM,77.0,62.6,61,29.89,5.6,Calm,Calm,-,N/A,,Partly Cloudy,0,2014-01-29 18:00:00
6:00 AM,73.4,66.2,78,29.92,5.6,SE,4.6,-,N/A,,Scattered Clouds,140,2014-01-29 23:00:00
6:30 AM,73.4,64.4,73,29.92,5.6,ESE,1.2,-,N/A,,Scattered Clouds,110,2014-01-29 23:30:00
7:00 AM,73.4,66.2,78,29.95,5.6,SE,3.5,-,N/A,,Scattered Clouds,130,2014-01-30 00:00:00
7:30 AM,75.2,66.2,73,29.95,5.6,ESE,2.3,-,N/A,,Scattered Clouds,120,2014-01-30 00:30:00
8:00 AM,75.2,66.2,73,29.98,5.6,South,3.5,-,N/A,,Scattered Clouds,180,2014-01-30 01:00:00
8:30 AM,77.0,66.2,69,29.98,5.6,SSE,4.6,-,N/A,,Scattered Clouds,150,2014-01-30 01:30:00
9:00 AM,78.8,66.2,65,30.01,5.6,ESE,5.8,-,N/A,,Scattered Clouds,120,2014-01-30 02:00:00
9:30 AM,80.6,66.2,61,30.01,5.6,NE,1.2,-,N/A,,Scattered Clouds,40,2014-01-30 02:30:00
10:00 AM,80.6,66.2,61,30.01,5.6,NE,6.9,-,N/A,,Scattered Clouds,40,2014-01-30 03:00:00
10:30 AM,80.6,66.2,61,30.01,5.6,NE,5.8,-,N/A,,Scattered Clouds,40,2014-01-30 03:30:00
11:00 AM,80.6,64.4,58,29.98,5.6,NNE,5.8,-,N/A,,Scattered Clouds,30,2014-01-30 04:00:00
11:30 AM,82.4,64.4,54,29.98,5.6,ENE,4.6,-,N/A,,Scattered Clouds,60,2014-01-30 04:30:00
12:00 PM,82.4,62.6,51,29.95,6.2,ENE,3.5,-,N/A,,Scattered Clouds,70,2014-01-30 05:00:00
12:30 PM,82.4,62.6,51,29.95,6.2,NW,4.6,-,N/A,,Scattered Clouds,320,2014-01-30 05:30:00
1:00 PM,84.2,62.6,48,29.92,6.2,NE,6.9,-,N/A,,Scattered Clouds,40,2014-01-30 06:00:00
1:30 PM,86.0,60.8,43,29.89,6.2,Variable,3.5,-,N/A,,Partly Cloudy,0,2014-01-30 06:30:00
2:00 PM,86.0,60.8,43,29.86,6.2,NNE,5.8,-,N/A,,Partly Cloudy,20,2014-01-30 07:00:00
2:30 PM,87.8,60.8,40,29.86,6.2,NE,6.9,-,N/A,,Partly Cloudy,40,2014-01-30 07:30:00
3:00 PM,87.8,57.2,35,29.83,6.2,North,6.9,-,N/A,,Partly Cloudy,10,2014-01-30 08:00:00
3:30 PM,87.8,53.6,31,29.83,6.2,NNE,8.1,-,N/A,,Partly Cloudy,30,2014-01-30 08:30:00
4:00 PM,87.8,53.6,31,29.83,6.2,NNE,8.1,-,N/A,,Partly Cloudy,20,2014-01-30 09:00:00
4:30 PM,86.0,55.4,35,29.83,6.2,North,8.1,-,N/A,,Partly Cloudy,360,2014-01-30 09:30:00
5:00 PM,87.8,53.6,31,29.83,6.2,NW,6.9,-,N/A,,Partly Cloudy,310,2014-01-30 10:00:00
5:30 PM,86.0,53.6,33,29.83,-9999.0,NW,5.8,-,N/A,,Clear,310,2014-01-30 10:30:00
6:00 PM,84.2,53.6,35,29.86,-9999.0,NNW,5.8,-,N/A,,Clear,330,2014-01-30 11:00:00
6:30 PM,84.2,53.6,35,29.86,-9999.0,NNW,4.6,-,N/A,,Clear,330,2014-01-30 11:30:00
7:00 PM,84.2,55.4,37,29.86,-9999.0,NNW,2.3,-,N/A,,Clear,340,2014-01-30 12:00:00
7:30 PM,82.4,57.2,42,29.86,5.6,NW,2.3,-,N/A,,Unknown,310,2014-01-30 12:30:00
8:00 PM,82.4,59.0,45,29.89,5.6,NW,3.5,-,N/A,,Unknown,310,2014-01-30 13:00:00
8:30 PM,80.6,57.2,45,29.89,5.6,WNW,4.6,-,N/A,,Unknown,300,2014-01-30 13:30:00
9:00 PM,78.8,57.2,47,29.89,5.6,NW,3.5,-,N/A,,Unknown,320,2014-01-30 14:00:00
9:30 PM,78.8,57.2,47,29.89,5.6,NW,2.3,-,N/A,,Unknown,320,2014-01-30 14:30:00
10:00 PM,78.8,59.0,51,29.89,5.6,NW,2.3,-,N/A,,Unknown,320,2014-01-30 15:00:00
10:30 PM,77.0,59.0,54,29.89,5.6,NNW,3.5,-,N/A,,Unknown,330,2014-01-30 15:30:00
11:00 PM,77.0,59.0,54,29.89,5.6,Calm,Calm,-,N/A,,Unknown,0,2014-01-30 16:00:00
11:30 PM,75.2,59.0,57,29.89,5.6,Calm,Calm,-,N/A,,Unknown,0,2014-01-30 16:30:00